Location: Schommer Observatory
(40.5200°N, 74.4500°W)
Time: 04:04:15
(UTC-04:00)

ISS - Pass Details

Date: 11 October 2017
Orbit: 401 x 408 km, 51.6° (Epoch: 22 October)

Event Time Altitude Azimuth Distance (km) Brightness Sun altitude
Rises 20:26:41 0° 306° (NW) 2,327 1.1 -24.2°
Reaches altitude 10° 20:28:47 10° 306° (NW) 1,466 -0.1 -24.5°
Enters shadow 20:30:36 30° 304° (NW) 753 -2.0 -24.9°
